PROBA-1 1 26958U 01049B 26120.14314796 .00001379 00000+0 93126-4 0 9994 2 26958 97.9616 127.0019 0053582 286.0405 73.4924 15.07314583336387 CUTE-1 (CO-55) 1 27844U 03031E 26119.98704058 .00000329 00000+0 16137-3 0 9996 2 27844 98.6755 129.1503 0008903 332.3520 27.7184 14.24305121184810 CUBESAT XI-IV (CO-57) 1 27848U 03031J 26119.95139711 .00000276 00000+0 14042-3 0 9999 2 27848 98.6786 128.8667 0009185 351.7833 8.3194 14.23594310184512 APRIZESAT 4 1 35684U 09041D 26120.17709598 .00000946 00000+0 11914-3 0 9994 2 35684 98.1421 194.5413 0044575 116.6817 243.8970 14.83806106904244 APRIZESAT 3 1 35686U 09041F 26120.01285142 .00001910 00000+0 16968-3 0 9999 2 35686 98.1995 270.9516 0061106 225.3652 134.2577 14.96071517909176 PROBA-2 1 36037U 09059B 26120.09726698 .00000219 00000+0 61483-4 0 9997 2 36037 98.2449 304.1176 0014496 71.4224 288.8546 14.54841572874532 APRIZESAT 5 1 37792U 11044E 26119.76817444 .00000954 00000+0 12781-3 0 9997 2 37792 98.2440 51.4467 0052745 157.2647 203.0918 14.80976456791627 APRIZESAT 6 1 37793U 11044F 26120.19709153 .00000707 00000+0 10724-3 0 9995 2 37793 98.2391 29.7129 0041959 238.7013 278.3327 14.76849713790069 PROBA-V 1 39159U 13021A 26119.90362725 .00000076 00000+0 51604-4 0 9999 2 39159 98.3562 100.9018 0002959 277.4311 82.6532 14.23586486674247 APRIZESAT 7 1 39416U 13066A 26120.11921172 .00001557 00000+0 15953-3 0 9997 2 39416 97.7675 74.0445 0036296 13.2335 346.9827 14.91446653674068 APRIZESAT 8 1 39425U 13066K 26120.11531645 .00001261 00000+0 14223-3 0 9990 2 39425 97.8190 68.2684 0047555 84.2704 276.3932 14.87546381672525 BUGSAT-1 (TITA) 1 40014U 14033E 26120.22772617 .00004791 00000+0 25751-3 0 9998 2 40014 98.0414 209.9961 0027803 347.5862 12.4680 15.15098148648571 SAUDISAT 4 1 40016U 14033G 26119.96514062 .00000850 00000+0 11898-3 0 9996 2 40016 97.7515 267.7872 0043769 229.0906 130.6512 14.79471851638948 APRIZESAT 9 1 40018U 14033J 26120.08409068 .00000558 00000+0 89485-4 0 9995 2 40018 97.8985 254.4784 0066025 356.1892 3.8805 14.74159333636478 APRIZESAT 10 1 40019U 14033K 26120.09891763 .00000624 00000+0 10534-3 0 9996 2 40019 97.9576 248.1520 0080089 67.8030 293.1649 14.70839111635182 TECHDEMOSAT-1 (TDS-1) 1 40076U 14037H 26120.00928782 .00009506 00000+0 54922-3 0 9993 2 40076 98.3804 107.4826 0008166 76.5066 283.7071 15.12527432640943 TECHNOSAT 1 42829U 17042E 26120.03976451 .00003795 00000+0 27332-3 0 9998 2 42829 97.4235 279.5554 0016099 256.7121 103.2311 15.04663262479469 FLYING LAPTOP 1 42831U 17042G 26120.18673718 .00002000 00000+0 16140-3 0 9990 2 42831 97.4467 277.6403 0017885 288.4835 71.4446 15.00833191479257 HAWK-A 1 43765U 18099H 26120.09942655 .00008653 00000+0 35314-3 0 9993 2 43765 97.3958 172.9747 0037005 95.0698 265.4765 15.24016569405774 HAWK-B 1 43794U 18099AN 26120.12995382 .00007406 00000+0 31995-3 0 9990 2 43794 97.4008 172.5186 0034138 111.6201 248.8678 15.22242710405725 HAWK-C 1 43799U 18099AT 26120.11735399 .00009879 00000+0 36169-3 0 9998 2 43799 97.3934 173.6726 0042872 95.8746 264.7382 15.27347276406571 SALSAT 1 46495U 20068K 26119.99234149 .00008776 00000+0 31318-3 0 9990 2 46495 97.8854 120.1513 0011649 109.1065 251.1436 15.29076272307998 HAWK-2C 1 47502U 21006CT 26120.08802374 .00007054 00000+0 21609-3 0 9996 2 47502 97.2323 165.3679 0007324 28.2400 331.9239 15.34078675292127 HAWK-2A 1 47505U 21006CW 26120.02571966 .00007053 00000+0 21601-3 0 9994 2 47505 97.2368 165.9563 0007048 32.7716 327.3963 15.34089982292115 HAWK-2B 1 47508U 21006CZ 26120.02277898 .00007956 00000+0 24322-3 0 9999 2 47508 97.2239 164.3644 0007474 29.7013 330.4653 15.34100952292119 HAWK-3B 1 48931U 21059BE 26120.00078884 .00042029 00000+0 41596-3 0 9992 2 48931 97.6694 312.2956 0006156 140.7643 219.4063 15.65725036270306 HAWK-3C 1 48948U 21059BX 26120.00048723 .00039177 00000+0 38813-3 0 9997 2 48948 97.6824 317.8953 0006577 140.6058 219.5680 15.65710165270306 HAWK-3A 1 48957U 21059CG 26120.00034727 .00040197 00000+0 39808-3 0 9995 2 48957 97.6763 315.1394 0006245 140.8807 219.2905 15.65717524270307 HAWK-5C 1 52754U 22057Y 26119.96338976 .00020503 00000+0 37185-3 0 9995 2 52754 97.6523 276.6136 0003878 230.9110 129.1796 15.49635127218874 HAWK-5B 1 52756U 22057AA 26119.96325302 .00020720 00000+0 37568-3 0 9992 2 52756 97.6532 274.9567 0004109 226.7754 133.3154 15.49639898218874 HAWK-5A 1 52757U 22057AB 26119.96301411 .00020617 00000+0 37385-3 0 9990 2 52757 97.6530 275.7903 0004296 229.3235 130.7643 15.49636550218872 HAWK-6B 1 55324U 23011A 26119.51836108 .00005273 00000+0 23105-3 0 9997 2 55324 40.4994 275.8448 0002149 20.3427 339.7468 15.22489134180427 HAWK-6C 1 55326U 23011C 26119.78010594 .00005462 00000+0 23898-3 0 9990 2 55326 40.4981 271.1631 0002809 9.4138 350.6723 15.22495348180473 HAWK-6A 1 55327U 23011D 26119.45216630 .00004994 00000+0 21925-3 0 9992 2 55327 40.4991 274.6944 0002583 1.9581 358.1238 15.22489875180425 HAWK-7A 1 56191U 23054P 26120.14527345 .00005969 00000+0 22897-3 0 9997 2 56191 97.2765 8.7066 0002636 166.9464 193.1844 15.26848613169695 HAWK-7B 1 56193U 23054R 26120.14520589 .00006078 00000+0 23310-3 0 9995 2 56193 97.2792 6.9533 0001767 163.0313 197.0986 15.26849180169691 HAWK-7C 1 56200U 23054Y 26120.14509890 .00005909 00000+0 22670-3 0 9996 2 56200 97.2768 7.7370 0002286 157.2622 202.8718 15.26849126169694